sat.trackr.live / text

‹ back to catalog

STARLINK-30551

NORAD 58083 · 2023-160J

PAYLOAD ACTIVE UNKNOWN

§ Identity

Operator
Country
US
Launch date
2023-10-18
Launch site
AFETR
Launch vehicle
Mass (kg)
RCS (m²)

Purposes: comms

External: N2YO · Heavens-Above · Gunter

§ Orbital elements

Epoch: 2026-09-20T21:59:30.300288Z

Period
94.26 min
Inclination
43.0055°
Eccentricity
0.0003246
Mean motion
15.27642541 rev/d
Perigee alt
480.6 km
Apogee alt
485.1 km
Semi-major
6,861.0 km
B*
-4.9121e-4
RAAN
58.7148°
Arg perigee
263.9723°
Mean anomaly
96.0759°
Rev number
16,276

§ Raw data

STARLINK-305511 58083U 23160J   26263.91632292 -.00013783  00000+0 -49121-3 0  99922 58083  43.0055  58.7148 0003246 263.9723  96.0759 15.27642541162768

JSON: /api/v1/satellites/58083 · /tle

For live sub-satellite position, see the globe view (requires WebGL).

§ Visibility from observer

Set your observer location to see the next 7 days of passes ≥ 10°. The values pass through the URL so the page stays shareable.

No JS? Fill the form by hand. The geolocation button needs JavaScript.